Ballenas Island, British Columbia

6:29 AM PDT on April 26, 2017 (GMT -0700)
Ballenas Island

Weather History for CWGB - February, 2013

Change the Weather History Date:

Sunday, February 10, 2013

  Actual Average Record
Temperature  
Mean Temperature 42 °F -  
Max Temperature 43 °F - - ()
Min Temperature 40 °F - - ()
Degree Days  
Heating Degree Days 24    
Moisture  
Dew Point 39 °F    
Average Humidity 89    
Maximum Humidity 95    
Minimum Humidity 83    
Precipitation  
Precipitation 0.00 in - - ()
Sea Level Pressure  
Sea Level Pressure 30.33 in    
Wind  
Wind Speed 2 mph ()    
Max Wind Speed 7 mph    
Max Gust Speed -    
T = Trace of Precipitation, MM = Missing Value Source: Averaged Metar Reports

Daily Weather History Graph

Daily Weather History Graph

Search for Another Location

Airport or City:

Trip Planner

Search our weather history database for the weather conditions in past years. The results will help you decide how hot, cold, wet, or windy it might be!

Date:

Astronomy

Feb. 10, 2013 Rise Set
Actual Time 7:33 AM PST 5:28 PM PST
Civil Twilight 7:00 AM PST 6:02 PM PST
Nautical Twilight 6:22 AM PST 6:39 PM PST
Astronomical Twilight 5:45 AM PST 7:16 PM PST
Moon 7:19 AM PST (2/10) 6:36 PM PST (2/10)
Length of Visible Light 11h 01m
Length of Day
9h 55m
New Moon, 0% of the Moon is Illuminated
Feb 10
New Moon
Feb 17
First Quarter
Feb 25
Full
Mar 4
Last Quarter
Mar 11
New

Hourly Weather History & Observations

Time (PST) Temp. Windchill Dew Point Humidity Pressure Visibility Wind Dir Wind Speed Gust Speed Precip Events Conditions
12:00 AM 42.1 °F - 39.0 °F 89% 30.33 in - ESE 2.3 mph - N/A   Unknown
1:00 AM 41.9 °F - 39.2 °F 90% 30.34 in - ESE 1.2 mph - N/A   Unknown
2:00 AM 42.1 °F 40.2 °F 39.0 °F 89% 30.34 in - East 3.5 mph - N/A   Unknown
3:00 AM 42.1 °F 40.2 °F 38.7 °F 88% 30.35 in - East 3.5 mph - N/A   Unknown
4:00 AM 42 °F - 39 °F 83% 30.35 in - NE 3.5 mph - -  
4:00 AM 41.9 °F 40.0 °F 38.7 °F 88% 30.35 in - NE 3.5 mph - N/A   Unknown
5:00 AM 41.9 °F - 38.3 °F 87% 30.35 in - NE 2.3 mph - N/A   Unknown
6:00 AM 42.1 °F - 38.8 °F 88% 30.34 in - NE 2.3 mph - N/A   Unknown
7:00 AM 41.7 °F - 38.1 °F 87% 30.34 in - Calm Calm - N/A   Unknown
8:00 AM 41.9 °F - 37.9 °F 86% 30.34 in - Calm Calm - N/A   Unknown
9:00 AM 42.1 °F - 38.7 °F 88% 30.35 in - NE 2.3 mph - N/A   Unknown
10:00 AM 42 °F - 39 °F 86% 30.35 in - ESE 1.2 mph - -  
10:00 AM 42.1 °F - 39.2 °F 90% 30.35 in - ESE 1.2 mph - N/A   Unknown
11:00 AM 41.4 °F 37.6 °F 39.2 °F 92% 30.35 in - ENE 5.8 mph - N/A   Unknown
12:00 PM 41.0 °F 37.1 °F 39.2 °F 93% 30.34 in - East 5.8 mph - N/A   Unknown
1:00 PM 40.8 °F 36.2 °F 39.2 °F 94% 30.33 in - ESE 6.9 mph - N/A   Unknown
2:00 PM 41.4 °F 38.4 °F 39.9 °F 95% 30.33 in - East 4.6 mph - N/A   Unknown
3:00 PM 41.4 °F 39.4 °F 39.6 °F 93% 30.32 in - ESE 3.5 mph - N/A   Unknown
4:00 PM 42 °F - 40 °F 89% 30.32 in - Calm Calm - -  
4:00 PM 42.1 °F - 39.9 °F 92% 30.32 in - Calm Calm - N/A   Unknown
5:00 PM 41.9 °F - 39.2 °F 90% 30.30 in - SSW 1.2 mph - N/A   Unknown
6:00 PM 42.1 °F 40.2 °F 39.7 °F 91% 30.30 in - SW 3.5 mph - N/A   Unknown
7:00 PM 42.1 °F - 39.7 °F 91% 30.30 in - Calm Calm - N/A   Unknown
8:00 PM 42.1 °F - 39.7 °F 91% 30.30 in - South 1.2 mph - N/A   Unknown
9:00 PM 43.2 °F 41.5 °F 40.6 °F 91% 30.32 in - West 3.5 mph - N/A   Unknown
10:00 PM 42 °F - 39 °F 87% 30.29 in - SW 2.3 mph - -  
10:00 PM 42.4 °F - 39.4 °F 89% 30.29 in - SW 2.3 mph - N/A   Unknown
11:00 PM 42.6 °F 39.9 °F 38.8 °F 86% 30.29 in - WSW 4.6 mph - N/A   Unknown